Regional Weather Roundup
Issued by NWS

Home | Current Version | Previous Version | Graphics & Text | Print | Product List | Glossary On
Versions: 1 2 3 4 5 6 7 8 9 10 11 12 13 14 15 16 17 18 19 20 21 22 23 24 25 26 27 28 29 30 31 32 33 34 35 36 37 38 39 40 41 42 43 44 45 46 47 48 49 50
000
ASUS43 KIND 300709
RWRIN

WEATHER ROUNDUP FOR INDIANA
NATIONAL WEATHER SERVICE INDIANAPOLIS IN
300 AM EDT SUN AUG 30 2015

NOTE: "FAIR" INDICATES FEW OR NO CLOUDS BELOW 12,000 FEET WITH NO
SIGNIFICANT WEATHER AND/OR OBSTRUCTIONS TO VISIBILITY.

* - STATION DOES NOT REPORT WEATHER SUCH AS PRECIPITATION OR FOG.

+ - STATION NOT QUALITY CONTROLLED BY THE NATIONAL WEATHER SERVICE.
    USE DATA WITH CAUTION...ESPECIALLY DEWPOINT AND RELATIVE
    HUMIDITY OBSERVATIONS.

INZ001>003-010>013-019-020-300800-
NORTHWEST INDIANA

CITY           SKY/WX    TMP DP  RH WIND       PRES   REMARKS
GARY /AIRPORT/ CLOUDY    67  64  91 CALM      30.02F FOG
KNOX *+        MOCLDY    66  66 100 CALM      30.01S
LA PORTE +     CLOUDY   N/A N/A N/A CALM      30.03S HAZE
MICHIGAN CITY+ CLOUDY    68  68 100 CALM      30.03S FOG
MONTICELLO +   FOG       66  66 100 CALM      30.02S VSB 1/2
RENSSELAER +   MOCLDY    68  68 100 S3        30.02S FOG
VALPARAISO     CLOUDY    69  67  93 CALM      30.03S FOG

$$

LMZ046-743>745-300800-
SOUTHERN LAKE MICHIGAN

STATION/POSITION TIME  TEMP    WIND        PRES    WAVE
                       AIR SEA DIR/SP/G            HT
                 (UTC) (F)     (DEG/KT/KT) (MB)    (FT)
BURNS HARBOR     0600   68     320/  6/  7 1017.3S
MICHIGAN CITY    0600   68     290/  7/  8   N/A
5NW MICH CITY    0700   68 71  330/  8/ 10   N/A     1

$$

INZ004-005-014>016-021>024-300800-
NORTH CENTRAL INDIANA

CITY           SKY/WX    TMP DP  RH WIND       PRES   REMARKS
GOSHEN         CLOUDY    67  64  90 S5        30.02F
LOGANSPORT +   PTCLDY    63  61  94 CALM      30.04S FOG
PERU/GRISSOM   MOCLDY    67  64  93 CALM      30.02F
ROCHESTER +    PTCLDY    68  68 100 CALM      30.03F
SOUTH BEND     CLOUDY    67  66  97 CALM      30.02F
WARSAW +       CLOUDY    64  64 100 CALM      30.03F

$$

INZ006>009-017-018-025>027-300800-
NORTHEAST INDIANA

CITY           SKY/WX    TMP DP  RH WIND       PRES   REMARKS
ANGOLA *+      MOCLDY    66  57  72 S3        30.04F
AUBURN +       CLOUDY    68  64  88 CALM      30.04F FOG
FORT WAYNE     CLOUDY    69  68  96 CALM      30.04F FOG
HUNTINGTON +   CLOUDY    65  62  89 CALM      30.03F

$$

INZ028-029-035-036-043>045-051>053-300800-
WEST CENTRAL INDIANA

CITY           SKY/WX    TMP DP  RH WIND       PRES   REMARKS
CRAWFORDSVL +  PTCLDY    60  60 100 CALM      30.04S FOG
GREENCASTLE +  MOCLDY    66  63  88 CALM      30.05S FOG
LAFAYETTE      FOG       65  65 100 CALM      30.02S VSB 3/4
TERRE HAUTE    PTCLDY    67  65  93 CALM      30.03F

$$

INZ030>032-037>040-046>048-054>057-064-065-300800-
CENTRAL INDIANA

CITY           SKY/WX    TMP DP  RH WIND       PRES   REMARKS
FRANKFORT +    PTCLDY   N/A N/A N/A CALM      30.06S FOG
GREENWOOD *+   CLOUDY    72  66  83 CALM      30.05F
INDIANAPOLIS   MOCLDY    72  66  81 S5        30.03F
-EAGLE CREEK   MOCLDY    72  67  84 CALM      30.03F
KOKOMO *+      MOCLDY    66  63  88 S6        30.04S
MARION +       MOCLDY    68  62  81 CALM      30.04S
MT COMFORT *+  CLOUDY    70 N/A N/A S5        30.05F
SHELBYVILLE    CLOUDY    71  68  90 CALM      30.04F
ZIONSVILLE +   MOCLDY    70  66  85 CALM      30.05F

$$

INZ033-034-041-042-049-050-058-059-300800-
EAST CENTRAL INDIANA

CITY           SKY/WX    TMP DP  RH WIND       PRES   REMARKS
MUNCIE         MOCLDY    70  67  90 SW3       30.04F

$$

INZ060-061-067>069-081>083-085>088-300800-
SOUTHWEST INDIANA

CITY           SKY/WX    TMP DP  RH WIND       PRES   REMARKS
EVANSVILLE     MOCLDY    72  70  93 CALM      30.04F
HUNTINGBURG *+ MOCLDY    72  66  83 S5        30.05F
WASHINGTON +   CLOUDY    68  64  87 CALM      30.03F FOG

$$

INZ062-063-066-070>080-084-089>092-300800-
SOUTH CENTRAL AND SOUTHEAST INDIANA

CITY           SKY/WX    TMP DP  RH WIND       PRES   REMARKS
BLOOMINGTON    CLOUDY    69  67  93 CALM      30.05F
MADISON *+     PTCLDY    66  63  88 CALM      30.09F
NORTH VERNON + PTCLDY    72  72 100 SE3       30.07F
SEYMOUR +      MOCLDY    70  68  94 CALM      30.05F

$$




USA.gov is the U.S. government's official web portal to all federal, state and local government web resources and services.